Regional Weather Roundup
Issued by NWS Newport/Morehead, NC

Current Version | Previous Version | Graphics & Text | Print | Product List | Glossary Off
Versions: 1 2 3 4 5 6 7 8 9 10 11 12 13 14 15 16 17 18 19 20 21 22 23 24 25 26 27 28 29 30 31 32 33 34 35 36 37 38 39 40 41 42 43 44 45 46 47 48 49 50

573
ASUS42 KMHX 202125
RWRMHX
WEATHER ROUNDUP FOR EASTERN NORTH CAROLINA
NATIONAL WEATHER SERVICE NEWPORT/MOREHEAD CITY NC
400 PM EST MON FEB 20 2017

NOTE: "FAIR" INDICATES FEW OR NO CLOUDS BELOW 12,000 FEET
WITH NO SIGNIFICANT WEATHER AND/OR OBSTRUCTIONS TO VISIBILITY

NCZ015>017-031-032-045>047-102-103-202200-
NORTH COAST

CITY           SKY/WX    TMP DP  RH WIND       PRES   REMARKS
EDENTON        SUNNY     63  41  45 SE9       30.19R
ELIZABETH CITY SUNNY     63  39  41 NE7       30.18R
KITTY HAWK     NOT AVBL
MANTEO         SUNNY     55  40  57 E9        30.20R

$$

NCZ045>047-081-094-103-104-202200-
CENTRAL COAST

CITY           SKY/WX    TMP DP  RH WIND       PRES   REMARKS
FRISCO         SUNNY     59  44  57 NE8G16    30.18S

$$

NCZ095-097-098-100-101-202200-
SOUTHERN COAST

CITY           SKY/WX    TMP DP  RH WIND       PRES   REMARKS
BEAUFORT       SUNNY     67  41  38 N12       30.17S
CEDAR ISLAND   NOT AVBL
JACKSONVILLE   SUNNY     70  45  40 SE10      30.16R
PINEY ISLAND   CLEAR    N/A N/A N/A E10       30.18R
WILMINGTON     SUNNY     66  46  48 E8        30.16R


$$

NCZ011>013-027>030-043-044-078>080-089-090>093-098-202200-
COASTAL PLAIN

CITY           SKY/WX    TMP DP  RH WIND       PRES   REMARKS
AHOSKIE          N/A     68  33  28 N3        30.18R
CLINTON        SUNNY     72  40  31 E5        30.16S
ELIZABETHTOWN  SUNNY     73  42  32 CALM      30.14S
GOLDSBORO      SUNNY     72  31  21 N5        30.15R
GREENVILLE     NOT AVBL
HAVELOCK       SUNNY     66  43  43 E12       30.18R
KENANSVILLE    NOT AVBL
KINSTON        SUNNY     72  30  21 NE6       30.17S
NEW BERN       SUNNY     69  40  34 E6        30.17S
RICHLANDS      SUNNY     72  36  26 VRB5      30.16S
ROCKY MOUNT    MOSUNNY   70  37  29 NW6       30.17R
WASHINGTON     SUNNY     68  36  30 N6        30.17R
WHITEVILLE     SUNNY     75  44  33 CALM      30.14S

$$

AMZ130-135-150-152-154-156-158-170-250-252-270-ANZ085-086-088-633-658-670-202200-
MARINE OBSERVATIONS

STATION/POSITION TIME  TEMP    WIND        PRES    WAVE   SWELL
                       AIR SEA DIR/SP/G            HT/PER HT/PER
                 (UTC) (F)     (DEG/KT/KT) (MB)    (FT/S) (FT/S)
CHESAPEAKE LIGHT NOT AVBL
64 E VA BEACH    2050   52 53   30/ 12/ 14 1021.7    3/ 5   2/ 7
DUCK             2100   50 49   60/  8/  9 1021.8
2 E DUCK         2100      49                N/A     1/ 3
OREGON INLET     2100   51 52   20/  9/ 11 1022.2
13E OREGON INLT  NOT AVBL
HATTERAS CG      2100   55 57   10/ 12/ 14 1021.8
DIAMOND BUOY     2050   59 64   20/ 17/ 19 1021.3    4/ 6   2/ 8
CAPE LOOKOUT     2100   58      40/ 10/ 11 1021.6
BEAUFORT LAB     2100   64 53   30/  8/ 13 1020.8
30 SE NEW RVR IN 2108   61      70/ 14/ 17 1021.6
30 SE NEW RVR IN 2113      63                N/A     4/ 5
27 SE WRIGHTSVLE 2108   63 62   80/ 12/ 17 1020.3
5 SE WRIGHTSVLE  2108   59 56  100/ 10/ 12 1021.2
225 S CAPE HAT   2050   70 71   20/ 16/ 17 1018.5    5/ 7   2/11
41 SE CHARLESTON 2050   65 69   20/  8/ 10 1020.6    2/ 4   2/ 7

$$




USA.gov is the U.S. government's official web portal to all federal, state and local government web resources and services.